Weather History for Douglas, WY

Change the Weather History Date:

Tuesday, October 16, 2012

  Actual Average Record
Temperature  
Mean Temperature 54 °F 46 °F  
Max Temperature 75 °F 61 °F 75 °F (2012)
Min Temperature 32 °F 30 °F 16 °F (1999)
Degree Days  
Heating Degree Days 11 19  
Month to date heating degree days 309 268  
Since 1 July heating degree days 437 537  
Cooling Degree Days 0 0  
Month to date cooling degree days 0 0  
Year to date cooling degree days 831 486  
Growing Degree Days 4 (Base 50)    
Moisture  
Dew Point 37 °F    
Average Humidity 59    
Maximum Humidity 92    
Minimum Humidity 25    
Precipitation  
Precipitation 0.16 in 0.03 in 1.43 in (1998)
Month to date precipitation 0.30 0.67  
Year to date precipitation 4.49 11.95  
Sea Level Pressure  
Sea Level Pressure 29.59 in    
Wind  
Wind Speed 14 mph (WNW)    
Max Wind Speed 44 mph    
Max Gust Speed 55 mph    
Visibility 10 miles    
Events Rain , Thunderstorm    
T = Trace of Precipitation, MM = Missing Value Source: NWS Daily Summary

Daily Weather History Graph

Daily Weather History Graph

Search for Another Location

Airport:

Trip Planner

Search our weather history database for the weather conditions in past years. The results will help you decide how hot, cold, wet, or windy it might be!

Date:

Astronomy

Oct. 16, 2012 Rise Set
Actual Time 7:16 AM MDT 6:16 PM MDT
Civil Twilight 6:48 AM MDT 6:45 PM MDT
Nautical Twilight 6:15 AM MDT 7:17 PM MDT
Astronomical Twilight 5:42 AM MDT 7:50 PM MDT
Moon 8:45 AM MDT (10/16) 6:59 PM MDT (10/16)
Length of Visible Light 11h 57m
Length of Day
10h 59m
New Moon, 2% of the Moon is Illuminated
Oct 16
New Moon
Oct 21
First Quarter
Oct 29
Full
Nov 6
Last Quarter
Nov 13
New

Hourly Weather History & Observations

Time (MDT) Temp. Windchill Dew Point Humidity Pressure Visibility Wind Dir Wind Speed Gust Speed Precip Events Conditions
12:53 AM 50.0 °F - 33.1 °F 52% 29.81 in 10.0 mi Calm Calm - N/A   Mostly Cloudy
1:53 AM 45.0 °F 43.5 °F 32.0 °F 60% 29.80 in 10.0 mi SSW 3.5 mph - N/A   Clear
2:53 AM 42.1 °F - 32.0 °F 67% 29.78 in 10.0 mi Calm Calm - N/A   Partly Cloudy
4:53 AM 37.9 °F - 30.9 °F 76% 29.76 in 10.0 mi Calm Calm - N/A   Clear
6:53 AM 34.0 °F 31.0 °F 27.0 °F 75% 29.75 in 10.0 mi NNW 3.5 mph - N/A   Clear
7:53 AM 34.0 °F - 27.0 °F 75% 29.72 in 10.0 mi Calm Calm - N/A   Clear
8:53 AM 50.0 °F - 33.1 °F 52% 29.65 in 10.0 mi SSE 3.5 mph - N/A   Clear
9:53 AM 61.0 °F - 34.0 °F 36% 29.58 in 10.0 mi Variable 4.6 mph - N/A   Clear
10:16 AM 66.2 °F - 33.8 °F 30% 29.69 in 10.0 mi West 23.0 mph 34.5 mph N/A   Clear
10:53 AM 69.1 °F - 32.0 °F 25% 29.52 in 10.0 mi West 31.1 mph 42.6 mph N/A   Clear
11:33 AM 69.8 °F - 32.0 °F 25% 29.61 in 9.0 mi West 24.2 mph 42.6 mph N/A   Mostly Cloudy
11:53 AM 69.1 °F - 32.0 °F 25% 29.44 in 9.0 mi WSW 34.5 mph 55.2 mph N/A   Overcast
12:00 PM 68.0 °F - 32.0 °F 26% 29.56 in 10.0 mi West 40.3 mph 52.9 mph N/A   Mostly Cloudy
12:15 PM 66.2 °F - 33.8 °F 30% 29.57 in 10.0 mi WSW 36.8 mph 51.8 mph N/A   Mostly Cloudy
12:22 PM 66.2 °F - 33.8 °F 30% 29.55 in 10.0 mi WSW 34.5 mph 51.8 mph N/A   Scattered Clouds
12:53 PM 66.9 °F - 33.1 °F 28% 29.42 in 10.0 mi West 31.1 mph 43.7 mph N/A   Clear
1:53 PM 73.0 °F - 35.1 °F 25% 29.38 in 10.0 mi West 39.1 mph 55.2 mph N/A   Mostly Cloudy
2:13 PM 75.2 °F - 35.6 °F 24% 29.50 in 10.0 mi West 35.7 mph 50.6 mph N/A   Mostly Cloudy
2:53 PM 70.0 °F - 36.0 °F 29% 29.38 in 10.0 mi West 28.8 mph 46.0 mph N/A   Partly Cloudy
3:53 PM 73.0 °F - 35.1 °F 25% 29.35 in 10.0 mi West 27.6 mph 43.7 mph N/A   Clear
4:53 PM 69.1 °F - 36.0 °F 30% 29.35 in 10.0 mi WSW 32.2 mph 36.8 mph N/A   Clear
5:53 PM 57.0 °F - 45.0 °F 64% 29.47 in 10.0 mi West 26.5 mph 48.3 mph 0.00 in Rain Light Rain
6:53 PM 51.1 °F - 42.1 °F 71% 29.52 in 10.0 mi WNW 26.5 mph 40.3 mph 0.00 in   Mostly Cloudy
7:26 PM 50.0 °F - 42.8 °F 76% 29.60 in 10.0 mi North 27.6 mph 34.5 mph N/A   Overcast
7:36 PM 48.2 °F - 42.8 °F 82% 29.61 in 10.0 mi North 18.4 mph 29.9 mph N/A   Overcast
7:53 PM 48.0 °F - 42.1 °F 80% 29.60 in 10.0 mi North 10.4 mph 20.7 mph N/A   Overcast
8:15 PM 46.4 °F 42.4 °F 41.0 °F 81% 29.61 in 10.0 mi NNW 8.1 mph - N/A   Scattered Clouds
8:26 PM 46.4 °F 44.3 °F 42.8 °F 87% 29.62 in 10.0 mi North 4.6 mph - N/A   Mostly Cloudy
8:53 PM 48.0 °F - 42.1 °F 80% 29.56 in 10.0 mi Calm Calm - N/A   Overcast
9:17 PM 46.4 °F - 42.8 °F 87% 29.63 in 9.0 mi Calm Calm - 0.01 in Rain Light Rain
9:53 PM 44.1 °F 40.8 °F 42.1 °F 93% 29.55 in 10.0 mi NE 5.8 mph - 0.01 in   Scattered Clouds
10:29 PM 44.6 °F 42.2 °F 42.8 °F 93% 29.67 in 10.0 mi North 4.6 mph - N/A   Overcast
10:53 PM 44.1 °F 36.8 °F 39.9 °F 85% 29.58 in 9.0 mi North 16.1 mph 31.1 mph 0.04 in Rain , Thunderstorm Heavy Rain
11:03 PM 42.8 °F 36.6 °F 39.2 °F 87% 29.71 in 6.0 mi WNW 11.5 mph - 0.05 in Rain Rain
11:05 PM 42.8 °F 37.0 °F 39.2 °F 87% 29.71 in 6.0 mi WNW 10.4 mph - 0.07 in Rain , Thunderstorm Heavy Rain
11:19 PM 42.8 °F 41.1 °F 39.2 °F 87% 29.69 in 10.0 mi NNW 3.5 mph - 0.09 in Rain Light Rain
11:53 PM 43.0 °F 39.5 °F 39.9 °F 89% 29.59 in 10.0 mi WSW 5.8 mph - 0.09 in   Overcast